Theta_e
302 301 302 302 304 306 305 305 307 305 302 303 303 302 303 302 302 301 300 300 300 300 301 301 302 303 303 303 303 303 303 302 301 301 301 301 301 300 299 299 298 297 297 296
302 302 302 303 304 304 305 306 306 305 302 303 302 302 302 302 301 301 300 299 299 299 299 300 301 301 301 301 302 302 302 301 301 300 300 300 300 299 298 297 296 296 296 296
306 304 303 304 305 305 304 306 305 308 303 301 301 305 302 299 297 298 298 299 298 299 299 299 299 300 301 301 301 301 301 300 300 300 300 299 298 297 296 296 295 295 295 295
304 305 305 304 305 305 307 304 305 304 307 308 300 307 303 300 298 296 296 297 298 298 297 297 298 298 299 299 299 299 299 299 299 298 298 297 296 295 295 295 294 294 294 294
305 305 306 306 306 305 307 303 303 303 304 304 302 304 303 299 301 299 296 297 297 297 297 297 297 297 297 297 297 297 297 297 296 296 295 295 295 295 295 294 294 294 293 293
305 302 303 306 303 305 302 304 303 303 305 309 304 306 305 301 301 298 296 297 297 297 297 297 297 297 297 297 297 296 296 296 296 296 295 295 294 294 294 293 293 292 292 292
305 304 303 302 303 303 304 308 308 308 308 308 298 301 308 299 296 296 295 296 296 297 297 297 297 297 296 296 296 295 295 295 295 295 294 294 293 293 292 292 292 291 291 291
307 306 303 302 304 305 305 309 309 313 306 305 299 302 304 295 289 291 295 296 296 296 297 296 296 296 296 296 296 295 295 294 295 294 293 293 292 292 292 291 291 291 291 292
309 309 302 302 302 303 305 308 303 300 295 303 300 298 298 294 292 290 293 294 296 296 296 295 295 296 296 296 295 295 295 295 294 293 293 292 292 292 292 292 292 292 292 292
307 305 302 300 302 301 304 302 306 305 306 308 300 296 303 296 295 293 289 293 295 295 295 295 295 295 295 294 294 295 295 295 295 294 293 292 292 293 292 292 292 291 292 292
303 304 302 301 302 302 302 303 304 304 303 307 304 302 293 295 295 293 290 295 295 295 296 296 296 296 295 294 294 294 294 294 295 294 293 293 292 293 292 292 292 292 292 292
303 302 302 297 290 295 299 303 303 308 302 296 298 305 288 285 281 291 292 295 295 295 296 296 296 296 296 296 296 294 293 294 294 294 294 293 292 292 293 292 292 293 293 293
302 301 301 301 301 298 301 298 298 296 297 298 306 305 285 282 285 289 292 294 295 295 295 295 295 294 294 295 295 295 294 293 294 294 294 293 293 293 293 293 293 293 293 293
303 302 299 304 301 296 297 297 297 301 301 293 295 294 292 291 292 287 291 294 295 295 294 294 293 293 293 293 293 294 294 294 294 293 294 293 292 292 293 293 293 293 293 293
302 303 297 292 294 295 297 301 300 302 303 305 296 295 296 295 291 290 294 294 294 295 295 294 293 293 292 292 293 293 294 293 293 294 293 293 293 293 292 292 293 293 293 293
298 299 298 295 294 296 299 297 301 301 292 291 282 287 292 284 287 290 294 293 294 294 294 293 292 292 292 292 292 293 294 293 292 292 293 293 292 293 292 292 292 292 292 293
299 297 301 299 293 296 301 294 295 296 296 301 302 300 288 283 281 288 293 293 294 294 293 292 291 291 290 291 291 291 292 292 292 291 291 292 292 292 292 292 292 292 291 290
297 297 296 296 292 303 294 276 286 292 293 295 288 284 287 284 289 292 293 295 293 293 292 291 290 289 288 288 288 288 288 289 289 289 289 289 290 291 291 291 291 291 291 291
293 295 291 298 292 294 293 287 289 293 293 290 295 281 279 284 288 289 292 292 292 291 291 290 288 287 287 287 287 287 287 287 287 287 288 288 288 289 289 289 290 291 291 291
294 292 294 283 293 294 288 284 284 283 292 280 278 282 282 284 292 288 291 290 290 290 289 287 287 286 286 286 286 286 286 286 287 287 287 287 288 288 288 289 289 289 289 290
293 292 290 286 286 290 285 286 287 293 291 282 281 284 285 287 289 292 290 289 289 287 287 286 286 286 286 285 285 285 286 286 286 286 287 287 287 287 288 288 288 289 289 289
291 295 289 289 289 294 287 289 293 290 288 288 286 286 288 291 291 290 289 288 287 286 286 286 285 285 285 285 285 285 285 285 285 286 286 286 286 286 287 287 287 287 288 288
293 292 292 292 294 289 289 290 291 293 292 292 290 289 290 290 288 287 287 286 286 286 285 285 285 285 285 285 285 285 285 285 285 285 285 285 285 285 285 285 286 286 285 286
289 289 291 292 292 289 292 292 293 293 293 292 290 290 290 289 287 287 286 286 285 285 284 284 284 284 284 284 284 284 284 284 284 284 284 284 284 284 284 284 284 284 284 284
290 290 291 292 292 290 293 294 294 293 293 292 290 289 288 288 287 287 286 285 284 284 283 283 283 283 283 283 283 284 284 284 283 283 283 283 283 284 284 283 284 283 283 283
290 291 292 293 292 293 293 294 294 293 292 292 290 289 288 288 287 286 284 284 283 283 283 283 283 283 282 282 282 283 283 283 283 283 282 282 282 282 282 282 281 281 282 282
Wind_Speed
7 5 13 17 20 2 5 5 6 4 3 4 7 7 14 9 10 10 8 6 5 4 3 1 1 3 8 14 19 22 23 23 22 20 18 18 19 20 22 23 25 23 22 21
3 17 8 8 6 6 4 5 5 1 3 2 4 11 12 10 8 12 15 11 9 7 5 3 4 4 4 7 13 17 20 20 20 19 19 19 20 22 23 23 21 21 21 21
14 3 13 14 7 10 9 15 5 5 3 1 4 9 7 3 4 9 12 12 11 10 9 6 4 4 5 5 8 11 14 16 17 18 19 22 23 24 22 21 22 23 23 23
10 15 3 10 16 14 14 8 7 6 4 4 1 7 5 4 6 6 14 15 14 12 10 8 7 6 6 6 8 10 13 15 18 20 22 22 23 23 24 24 24 23 24 23
9 11 17 11 6 10 2 5 5 3 4 2 3 1 5 2 6 11 11 18 16 13 10 8 7 7 8 8 10 13 15 17 18 20 21 22 23 23 24 23 22 22 21 21
2 4 1 7 5 8 11 6 7 5 2 3 7 7 5 6 7 3 8 20 19 15 9 9 8 8 9 10 12 13 15 16 18 20 21 21 21 21 21 20 20 19 19 18
4 4 3 3 6 6 6 9 3 2 4 6 1 2 14 5 6 4 10 24 20 13 10 9 8 8 9 10 11 13 14 16 18 19 20 20 19 19 18 18 17 17 17 16
10 5 13 9 6 9 11 7 6 8 6 2 1 8 7 4 2 4 16 22 16 12 9 6 6 8 10 11 12 13 14 15 17 17 17 18 17 17 16 17 17 17 17 17
8 7 3 13 3 7 5 5 4 6 1 1 4 6 8 4 1 2 12 17 15 11 8 5 4 4 5 7 10 12 13 14 15 15 17 17 17 17 17 18 18 18 18 18
5 3 4 4 5 1 3 8 4 2 6 5 4 5 6 6 9 7 5 14 14 12 8 5 3 2 4 6 8 11 13 13 13 15 15 16 16 17 16 16 16 17 17 18
4 4 4 6 8 9 5 4 3 4 3 5 2 6 5 6 12 15 9 19 17 12 9 6 3 1 2 5 8 10 12 12 12 13 13 14 13 14 14 14 14 14 14 14
4 3 4 5 4 2 2 5 5 5 6 1 1 5 1 4 4 9 16 19 16 12 9 6 2 3 5 6 8 10 11 11 12 12 11 11 11 12 12 11 11 11 11 12
9 4 4 3 0 1 5 4 4 4 3 6 6 5 2 1 3 10 18 16 14 11 8 5 3 4 6 8 9 10 10 11 12 11 11 10 10 11 11 10 11 11 11 11
8 4 5 10 5 4 6 7 8 5 3 5 6 3 4 4 7 7 14 15 13 12 10 8 6 6 7 8 9 10 12 11 11 12 12 10 11 11 10 11 11 11 11 11
6 4 3 3 3 4 3 10 14 15 12 8 4 10 6 11 13 13 17 14 13 12 10 11 11 11 10 9 9 11 13 14 13 12 13 13 14 13 11 11 12 11 10 11
1 3 3 2 2 2 4 5 12 15 3 6 3 6 7 2 8 13 18 16 13 10 9 8 9 10 12 14 13 13 14 14 14 14 13 13 16 16 15 14 13 13 13 14
4 5 3 2 2 2 3 9 9 7 7 13 15 10 7 4 6 14 22 19 17 11 8 3 3 7 11 12 13 13 13 13 13 12 13 14 15 16 18 18 18 17 17 18
4 3 2 3 2 4 3 1 2 5 5 9 1 4 4 3 9 9 12 17 15 11 7 4 6 9 10 10 11 11 11 11 11 11 12 14 16 16 16 19 21 21 22 23
2 4 3 3 3 5 1 2 5 6 7 7 14 4 2 7 6 2 12 13 11 9 5 5 7 7 7 7 8 8 9 9 9 10 11 13 15 16 17 18 20 21 23 25
4 5 3 2 3 5 5 3 5 1 4 2 3 7 8 10 3 4 17 13 10 7 4 3 5 5 6 7 8 8 8 9 10 10 11 12 14 15 15 17 18 19 20 23
2 3 4 2 1 6 4 3 5 4 5 1 4 7 15 4 4 10 17 12 8 5 2 1 3 5 6 6 8 8 9 9 10 11 11 12 12 13 14 14 15 17 18 19
4 4 3 3 2 5 7 5 5 4 2 0 1 8 15 10 13 16 13 9 7 5 2 1 3 4 6 7 8 9 9 10 11 11 11 11 12 13 13 13 13 14 15 16
0 3 3 5 4 2 11 3 4 2 2 1 3 11 14 13 13 12 12 9 7 4 2 1 3 4 6 6 8 9 9 10 10 11 10 11 11 12 13 13 12 11 12 13
2 1 1 2 2 3 8 11 11 7 4 2 3 7 11 10 13 13 12 9 7 5 2 2 2 3 4 6 8 9 10 10 11 11 11 10 11 10 11 12 12 11 11 10
1 4 3 4 4 2 9 12 13 15 12 7 7 8 9 11 13 11 11 9 7 6 5 4 4 3 6 9 10 10 10 10 10 11 11 11 11 12 11 12 12 11 10 10
2 2 2 2 3 1 2 4 6 13 16 12 10 12 11 11 11 12 11 9 8 7 6 4 4 6 9 10 11 11 11 11 11 12 11 12 12 11 12 11 8 11 11 10
Wind_Direction
193 164 205 186 201 108 158 180 184 202 163 196 232 251 262 242 250 246 238 219 198 180 159 118 104 212 222 222 218 216 220 224 230 237 245 254 266 278 285 289 291 290 289 289
132 233 200 195 198 182 170 179 210 264 150 192 317 268 256 251 232 222 211 200 190 177 162 130 92 93 135 186 200 208 214 223 231 239 249 260 272 279 284 286 284 285 285 286
206 167 195 183 173 201 216 222 174 214 162 128 315 271 227 225 183 186 190 189 186 185 181 171 148 124 124 148 180 202 215 225 235 245 257 268 275 279 280 280 281 282 283 283
230 252 179 205 215 194 225 193 162 156 136 238 23 281 272 207 218 203 191 187 182 177 173 172 178 191 199 202 205 214 225 236 247 256 264 269 272 276 278 279 279 278 278 279
212 180 201 201 213 180 245 82 127 106 109 26 192 284 262 110 244 209 195 191 182 176 176 184 197 208 216 222 231 239 246 252 258 263 268 272 275 277 279 280 278 275 274 273
221 343 182 197 74 146 152 88 63 56 101 227 193 176 242 190 213 162 167 188 182 183 193 198 208 216 226 234 242 249 255 261 266 271 273 276 278 278 279 278 276 273 270 268
142 191 152 131 113 132 148 134 135 179 194 230 299 165 249 240 216 203 173 177 179 187 189 189 205 223 237 244 250 256 262 267 270 272 275 276 276 278 279 276 274 270 267 265
188 216 166 179 196 178 175 185 170 194 190 187 68 229 250 215 137 130 170 167 174 182 188 204 222 230 238 247 256 260 265 270 272 273 273 274 275 276 277 276 274 271 268 264
182 226 146 167 138 150 174 199 112 101 54 112 202 273 278 149 75 135 154 169 175 175 174 177 188 218 231 243 254 261 266 267 269 270 272 274 275 277 275 274 273 272 270 269
190 131 199 132 105 34 194 144 126 170 158 208 244 276 247 203 199 193 194 184 174 172 169 164 168 206 252 264 266 271 270 269 271 271 272 272 274 275 274 276 277 274 274 272
141 121 136 141 209 163 154 172 168 111 163 188 213 251 214 214 187 188 192 184 176 175 175 174 176 216 283 290 287 282 277 275 273 272 272 272 271 274 278 279 278 275 272 273
171 104 151 203 274 299 92 148 159 169 189 216 108 277 172 245 244 179 184 177 175 176 182 188 216 278 292 294 300 294 286 281 274 273 273 273 275 280 284 280 279 278 279 275
170 161 118 98 107 219 211 176 119 92 75 190 156 251 347 230 203 195 171 172 176 183 193 205 244 280 292 292 290 292 295 290 284 278 272 273 275 278 280 278 276 277 282 277
158 152 184 198 158 146 189 174 173 162 168 155 219 269 302 230 190 192 182 179 181 190 202 217 242 269 284 294 295 294 294 296 294 285 275 271 270 268 274 274 270 273 281 287
183 159 106 22 123 112 153 184 180 203 204 204 219 202 233 201 199 193 188 190 194 198 217 236 248 263 270 284 300 307 302 296 292 292 284 269 267 271 269 270 274 278 283 286
106 124 120 95 5 137 162 199 205 220 193 257 165 258 227 225 172 186 196 194 196 209 225 240 261 271 272 277 287 297 297 294 292 286 284 279 270 270 269 270 270 273 275 273
128 140 128 147 305 128 282 210 187 203 206 217 233 240 161 227 215 209 206 211 217 210 209 224 259 278 279 285 291 295 292 292 290 290 284 278 277 272 270 268 267 266 264 262
124 94 60 132 213 216 236 352 299 209 231 220 334 245 205 213 188 196 194 198 197 192 198 224 275 289 293 300 299 300 300 296 295 292 287 281 277 273 270 269 268 265 262 261
47 112 105 155 197 285 354 215 172 173 269 223 229 174 210 154 128 153 174 176 186 188 207 259 281 291 302 309 308 309 306 306 302 299 294 289 285 281 278 273 269 268 267 264
61 73 97 100 138 206 248 265 204 174 300 247 193 176 158 164 142 244 181 179 191 190 232 267 298 316 326 328 324 320 315 314 316 312 307 300 296 294 289 286 283 278 273 271
57 35 130 130 199 288 248 208 164 109 242 279 227 198 161 179 158 145 163 179 170 194 197 303 317 332 331 329 329 327 327 329 332 328 324 318 311 305 301 300 296 291 287 284
159 136 171 117 88 277 173 125 181 230 183 17 48 166 169 139 138 148 161 170 173 165 148 4 335 336 333 333 334 335 336 341 340 337 333 329 323 318 314 310 306 301 297 293
314 175 183 185 213 204 193 214 241 247 293 179 110 162 182 166 158 166 163 159 152 142 131 50 358 342 335 335 339 340 343 345 347 343 341 337 333 327 323 319 315 312 305 301
284 178 174 45 299 241 233 241 253 252 253 225 166 184 183 179 171 164 157 155 149 141 123 68 40 8 347 349 352 349 351 352 350 348 345 345 343 339 334 329 325 323 317 313
181 139 186 263 261 292 270 262 261 248 241 226 204 186 184 178 163 160 156 153 145 138 122 93 70 36 20 11 3 357 352 351 347 344 342 343 342 341 344 343 336 337 331 323
198 231 184 248 318 64 314 321 301 242 232 222 205 189 184 175 169 163 159 153 145 131 117 86 50 26 18 12 7 0 353 350 347 345 343 342 342 343 344 345 353 337 338 336